DateTime,Index
2005080418,0.0
2005080500,0.0
2005080506,0.0
2005080512,0.0
2005080518,0.0
2005080600,0.0
2005080606,0.0
2005080612,0.0
2005080618,0.0
2005080700,0.0
2005080706,0.0
2005080712,1225.0
2005080718,1225.0
2005080800,1225.0
2005080806,1225.0
2005080812,0.0
2005080818,0.0
2005080900,0.0
2005080906,0.0
2005080912,0.0
2005080918,0.0
2005081000,0.0
2005081006,0.0
2005081012,0.0
2005081018,0.0
2005081100,1225.0
2005081106,1600.0
2005081112,2025.0
2005081118,2025.0
2005081200,2025.0
2005081206,3025.0
2005081212,3025.0
2005081218,3025.0
2005081300,3600.0
2005081306,3600.0
2005081312,3600.0
2005081318,3600.0
2005081400,3600.0
2005081406,3025.0
2005081412,3025.0
2005081418,3600.0
2005081500,4900.0
2005081506,5625.0
2005081512,5625.0
2005081518,6400.0
2005081600,6400.0
2005081606,6400.0
2005081612,7225.0
2005081618,8100.0
2005081700,6400.0
2005081706,5625.0
2005081712,4225.0
2005081718,4225.0
2005081800,3600.0
2005081806,3600.0
2005081812,2500.0
